CHUBUSAT-1

Last updated on Mon Mar 05 2018 00:19:52 GMT+0000 (Coordinated Universal Time)

1 40300U 14070C 18063.78889885 .00000604 00000-0 29899-4 0 9999 2 40300 97.3719 143.6882 0018594 269.2194 206.0745 15.21407907184404

Satellite not in orbit

CHUBUSAT-1